Date,TemperatureHighF,TemperatureAvgF,TemperatureLowF,DewpointHighF,DewpointAvgF,DewpointLowF,HumidityHigh,HumidityAvg,HumidityLow,PressureMaxIn,PressureMinIn,WindSpeedMaxMPH,WindSpeedAvgMPH,GustSpeedMaxMPH,PrecipitationSumIn
2013-1-1,47,44,40,40,34,19,83,70,38,30.09,29.90,7,2,14,0.00
2013-1-2,40,38,33,36,26,15,85,64,40,30.20,29.96,7,1,12,0.00
2013-1-3,43,35,32,22,19,16,63,52,38,30.25,30.17,5,1,11,0.00
2013-1-4,42,34,28,22,21,19,69,59,46,30.31,30.22,12,3,20,0.00
2013-1-5,48,38,29,27,21,18,73,53,31,30.43,30.21,11,2,14,0.00
2013-1-6,48,42,38,31,29,26,67,59,50,30.23,30.06,11,2,13,0.00
2013-1-7,47,39,30,30,26,23,76,61,43,30.47,30.18,9,2,15,0.00
2013-1-8,54,40,28,37,30,24,87,68,41,30.47,30.37,7,1,13,0.00
2013-1-9,57,47,34,49,40,31,90,77,64,30.45,30.35,12,1,12,0.00
2013-1-10,56,49,43,39,33,30,68,54,39,30.57,30.42,6,1,12,0.00
2013-1-11,50,43,40,41,37,30,95,80,50,30.43,30.14,9,2,16,0.02
2013-1-12,70,54,42,59,50,41,97,86,62,30.20,30.07,11,2,18,0.00
2013-1-13,69,63,58,59,58,57,96,84,69,30.08,29.96,13,5,19,0.00
2013-1-14,66,56,45,59,53,43,96,88,74,30.23,29.97,11,2,16,0.33
2013-1-15,45,41,38,43,40,37,96,95,94,30.27,30.10,5,1,10,1.13
2013-1-16,47,42,38,45,40,37,97,94,89,30.10,29.93,10,1,16,0.28
2013-1-17,45,38,33,44,36,32,97,94,86,30.17,30.01,3,1,8,1.20
2013-1-18,41,33,27,32,26,22,97,77,52,30.52,30.18,5,1,7,0.08
2013-1-19,47,37,28,32,27,22,87,69,38,30.47,30.10,7,2,10,0.00
2013-1-20,54,46,38,31,26,18,65,48,35,30.10,29.98,17,4,23,0.00
2013-1-21,50,39,30,24,16,5,58,39,27,30.08,29.85,17,4,26,0.00
2013-1-22,29,22,17,8,1,-3,49,40,30,30.31,29.99,13,5,24,0.00
2013-1-23,33,24,16,18,5,-2,65,46,27,30.38,30.07,11,3,18,0.00
2013-1-24,31,25,17,19,8,2,68,50,32,30.55,30.04,14,4,27,0.00
2013-1-25,27,20,17,26,12,4,94,73,49,30.52,30.10,11,3,17,0.03
2013-1-26,39,32,26,29,24,18,93,74,58,30.45,30.09,11,3,16,0.00
2013-1-27,35,29,21,26,22,17,84,74,65,30.61,30.45,10,2,14,0.00
2013-1-28,56,42,32,48,36,26,93,80,64,30.47,30.17,12,3,18,0.08
2013-1-29,73,62,55,54,51,47,85,68,47,30.17,29.95,21,3,21,0.00
2013-1-30,65,61,53,61,57,50,96,89,77,29.95,29.30,16,6,27,3.01
2013-1-31,54,38,32,49,24,17,85,60,47,29.94,29.34,19,7,34,0.02
2013-2-1,38,25,18,31,11,3,92,55,41,30.41,29.80,17,6,29,0.00
2013-2-2,33,25,16,27,15,6,83,68,48,30.39,30.04,14,2,19,0.00
2013-2-3,38,33,30,28,23,17,83,67,57,30.04,29.86,16,4,26,0.00
2013-2-4,42,32,25,26,18,13,65,57,50,30.14,29.95,10,3,21,0.00
2013-2-5,51,45,40,36,31,25,71,58,46,29.96,29.89,11,4,18,0.00
2013-2-6,53,44,35,35,28,24,69,54,36,30.30,29.93,8,2,15,0.00
2013-2-7,40,36,32,32,29,25,93,76,68,30.37,30.13,4,1,8,0.08
2013-2-8,47,37,32,39,31,25,95,82,60,30.12,29.84,15,3,29,0.20
2013-2-9,50,37,29,25,17,14,67,47,25,30.37,30.09,15,4,25,0.00
2013-2-10,46,36,26,31,20,15,77,53,37,30.47,30.21,13,3,16,0.02
2013-2-11,62,50,37,51,39,20,95,70,28,30.21,29.87,14,5,23,0.00
2013-2-12,58,48,39,26,22,18,57,37,24,30.04,29.89,14,4,23,0.00
2013-2-13,47,41,37,39,32,18,95,71,32,29.93,29.61,10,1,14,0.07
2013-2-14,52,41,31,32,28,24,81,61,38,30.06,29.83,6,2,12,0.00
2013-2-15,57,43,33,38,31,27,85,66,32,30.07,29.89,14,2,22,0.01
2013-2-16,37,34,26,30,22,13,78,62,46,30.00,29.85,13,3,15,0.00
2013-2-17,29,24,19,17,6,2,71,46,33,30.27,29.92,14,6,28,0.00
2013-2-18,50,35,20,24,15,6,60,44,31,30.40,30.15,12,3,18,0.00
2013-2-19,53,42,35,41,27,15,91,59,32,30.16,29.77,17,8,28,0.08
2013-2-20,42,34,28,16,13,11,52,43,30,30.18,29.95,13,5,30,0.00
2013-2-21,49,35,23,20,16,13,65,48,29,30.30,30.16,8,2,12,0.00
2013-2-22,36,34,30,29,24,18,81,69,49,30.35,30.16,11,3,14,0.05
2013-2-23,53,41,33,42,35,29,91,80,64,30.16,29.81,5,1,6,0.00
2013-2-24,54,45,36,41,28,21,89,56,30,30.08,29.82,12,4,17,0.00
2013-2-25,43,35,29,24,21,19,74,57,45,30.21,30.08,7,2,9,0.00
2013-2-26,40,36,32,38,30,20,95,81,56,30.19,29.64,5,1,13,0.65
2013-2-27,48,43,38,38,34,32,96,74,56,29.76,29.61,8,2,16,0.00
2013-2-28,40,37,36,32,27,23,73,67,53,29.84,29.69,14,4,20,0.00
2013-3-1,40,37,34,28,25,22,74,64,54,29.92,29.80,10,3,15,0.00
2013-3-2,35,33,30,23,20,17,67,61,55,29.94,29.87,11,4,15,0.00
2013-3-3,36,30,27,19,17,13,69,59,49,30.01,29.91,15,5,23,0.00
2013-3-4,49,35,25,14,12,9,60,41,21,30.12,30.00,10,4,19,0.00
2013-3-5,48,38,33,38,29,12,95,74,36,30.09,29.63,6,1,14,0.64
2013-3-6,41,35,31,33,31,29,96,85,72,30.10,29.62,11,2,17,0.37
2013-3-7,42,38,36,30,28,25,77,68,54,30.26,30.09,15,5,26,0.00
2013-3-8,51,41,35,29,26,22,72,57,38,30.36,30.21,11,4,19,0.00
2013-3-10,65,59,53,34,31,28,37,34,30,30.21,30.18,9,3,16,0.00
2013-3-11,59,53,47,51,36,22,77,54,33,30.19,29.85,13,5,20,0.00
2013-3-12,58,51,38,54,43,29,95,74,48,29.98,29.70,13,4,19,0.99
2013-3-13,45,38,31,32,26,17,85,63,47,30.16,29.96,13,4,29,0.00
2013-3-14,47,35,27,20,17,14,65,48,31,30.27,30.15,14,5,20,0.00
2013-3-15,62,48,34,35,25,14,51,42,33,30.18,29.85,11,3,14,0.00
2013-3-16,76,60,46,56,44,34,90,59,36,29.85,29.56,21,3,30,0.06
2013-3-17,58,44,35,50,40,34,95,88,72,30.18,29.81,10,3,17,0.36
2013-3-18,36,34,32,34,33,31,95,94,92,30.22,29.90,6,1,12,0.11
2013-3-19,58,44,33,39,23,1,96,54,12,30.03,29.83,23,5,34,0.00
2013-3-20,53,43,33,26,11,5,64,28,19,30.07,29.78,14,4,23,0.00
2013-3-21,37,30,25,26,14,8,68,51,35,30.00,29.78,15,5,23,0.00
2013-3-22,47,33,21,17,13,9,64,46,28,30.08,29.98,10,3,16,0.00
2013-3-23,57,42,31,24,20,14,67,43,24,30.08,29.91,7,1,13,0.00
2013-3-24,43,36,32,32,27,17,94,72,38,29.94,29.59,3,0,11,0.56
2013-3-25,40,35,29,34,28,23,95,78,52,29.79,29.55,21,4,28,0.14
2013-3-26,45,38,34,29,26,24,70,62,46,30.12,29.79,12,4,19,0.00
2013-3-27,42,37,32,29,25,22,74,64,49,30.23,30.12,9,3,18,0.00
2013-3-28,48,40,34,27,25,22,74,54,41,30.29,30.21,11,3,19,0.00
2013-3-29,57,47,39,29,25,21,58,43,25,30.31,30.17,7,2,16,0.00
2013-3-30,63,49,34,31,27,24,72,46,26,30.25,30.06,10,2,15,0.00
2013-3-31,59,52,45,51,42,28,94,71,36,30.06,29.76,11,4,16,0.17
2013-4-1,58,50,40,45,38,28,79,65,50,30.01,29.82,16,3,23,0.01
2013-4-2,52,42,34,23,16,12,59,37,21,30.18,30.03,12,4,21,0.00
2013-4-3,54,42,31,20,15,11,55,34,19,30.36,30.18,10,2,16,0.00
2013-4-4,42,36,33,32,21,11,95,60,32,30.39,30.05,7,1,14,0.55
2013-4-5,64,46,33,42,34,27,96,70,28,30.05,29.91,8,2,13,0.09
2013-4-6,62,51,36,33,27,21,76,42,25,30.26,30.05,11,3,19,0.00
2013-4-7,71,57,44,44,39,23,75,53,31,30.21,30.02,18,7,23,0.00
2013-4-8,78,66,53,51,46,43,70,50,32,30.10,29.96,9,2,19,0.00
2013-4-9,85,74,62,54,51,49,62,45,30,30.10,29.96,8,3,17,0.00
2013-4-10,90,78,68,56,53,41,60,43,19,30.01,29.82,13,4,20,0.00
2013-4-11,83,74,67,59,55,54,65,53,39,29.86,29.67,14,4,19,0.00
2013-4-12,76,66,58,63,53,37,93,66,28,29.77,29.57,22,5,24,0.87
2013-4-13,72,59,50,38,34,27,57,41,22,29.98,29.78,16,4,16,0.00
2013-4-14,77,64,51,42,34,28,45,34,24,30.09,29.97,9,2,15,0.00
2013-4-15,66,57,52,53,52,43,95,82,43,30.23,30.01,5,1,14,0.35
2013-4-16,76,64,56,61,58,54,96,80,58,30.28,30.13,14,4,16,0.00
2013-4-17,83,70,62,61,58,57,84,68,44,30.20,30.07,7,2,13,0.00
2013-4-18,77,69,64,63,59,55,89,71,48,30.12,29.94,9,4,20,0.00
2013-4-19,70,64,50,64,58,40,93,82,70,29.93,29.61,14,5,24,0.72
2013-4-20,62,50,41,40,29,25,70,47,26,30.31,29.84,13,4,21,0.00
2013-4-21,57,48,39,33,30,25,64,51,38,30.52,30.32,7,2,13,0.00
2013-4-22,65,49,35,35,30,22,79,52,20,30.50,30.30,9,2,13,0.00
2013-4-23,70,56,46,47,42,35,76,60,41,30.32,30.08,10,2,16,0.00
2013-4-24,74,62,50,59,51,45,90,69,45,30.09,29.85,25,4,27,0.08
2013-4-25,68,53,41,43,32,18,76,49,16,30.32,30.06,11,2,16,0.00
2013-4-26,69,56,42,38,33,27,66,43,30,30.45,30.31,9,2,12,0.00
2013-4-27,69,58,47,47,42,35,78,57,41,30.36,30.24,7,1,11,0.00
2013-4-28,58,53,51,51,50,47,93,87,69,30.24,30.03,10,3,30,0.16
2013-4-29,71,57,50,58,52,48,96,85,60,30.10,29.97,7,1,12,0.03
2013-4-30,70,63,58,58,55,53,84,75,65,30.21,30.09,9,1,9,0.00
2013-5-1,72,60,54,57,51,41,94,75,38,30.35,30.21,4,1,11,0.01
2013-5-2,71,61,53,50,44,40,72,56,40,30.36,30.24,6,1,14,0.00
2013-5-3,67,56,44,50,46,40,94,71,51,30.31,30.20,6,1,13,0.00
2013-5-4,67,54,44,48,44,40,86,69,44,30.25,30.11,8,1,14,0.00
2013-5-5,58,52,44,50,42,32,90,69,53,30.15,30.03,6,1,10,0.00
2013-5-6,56,54,51,55,52,49,97,95,84,30.07,29.90,7,1,12,1.00
2013-5-7,57,54,51,56,53,50,98,97,92,29.94,29.88,3,0,9,2.32
2013-5-8,62,54,50,57,52,49,98,94,77,30.01,29.93,4,0,6,0.30
2013-5-9,79,63,48,59,52,48,98,72,36,30.05,29.97,5,1,13,0.01
2013-5-10,81,67,53,62,56,51,95,72,45,30.05,29.88,9,2,32,0.41
2013-5-11,76,66,60,63,60,55,97,82,57,29.91,29.74,9,1,12,0.01
2013-5-12,63,56,46,55,39,30,82,55,33,30.05,29.80,12,2,21,0.00
2013-5-13,59,49,40,38,33,29,77,55,33,30.20,30.05,7,2,16,0.00
2013-5-14,71,54,36,44,38,33,92,60,28,30.25,30.02,9,2,14,0.00
2013-5-15,90,72,56,59,52,44,81,53,29,30.02,29.83,10,2,18,0.00
2013-5-16,84,74,64,60,55,50,74,53,40,29.96,29.85,9,2,28,0.00
2013-5-17,81,69,60,64,59,55,87,73,48,30.09,29.96,5,0,10,0.00
2013-5-18,70,65,62,65,62,60,96,91,82,30.15,30.07,7,1,14,0.37
2013-5-19,68,64,62,66,63,61,97,95,91,30.13,30.04,4,1,11,0.48
2013-5-20,79,70,64,69,66,63,98,88,67,30.09,29.98,4,1,7,0.05
2013-5-21,88,74,63,71,66,62,97,79,45,30.01,29.87,4,1,7,0.00
2013-5-22,83,71,64,70,64,59,95,79,61,29.94,29.84,7,1,14,0.27
2013-5-23,79,68,60,69,64,59,96,88,70,29.90,29.74,7,1,22,0.52
2013-5-24,61,56,46,59,46,35,96,71,42,30.19,29.80,12,3,24,0.00
2013-5-25,69,55,41,40,36,30,81,53,24,30.28,30.17,12,2,19,0.00
2013-5-26,75,61,49,45,39,32,76,49,21,30.26,30.15,9,1,11,0.00
2013-5-27,74,60,45,56,46,36,80,62,45,30.29,30.14,5,0,8,0.00
2013-5-28,85,70,54,66,59,53,94,71,42,30.19,30.07,7,1,16,0.00
2013-5-29,88,76,66,65,63,60,86,65,43,30.16,30.08,7,1,11,0.00
2013-5-30,88,75,64,67,63,59,88,66,47,30.20,30.11,7,1,15,0.00
2013-5-31,86,75,63,68,63,59,90,68,50,30.16,30.04,6,1,14,0.00
2013-6-1,84,75,67,74,65,61,90,71,59,30.05,29.93,8,1,14,0.03
2013-6-2,76,71,66,71,66,61,95,84,66,29.95,29.85,6,1,12,0.22
2013-6-3,80,70,65,67,64,59,96,81,60,29.96,29.83,4,0,11,0.03
2013-6-4,80,69,58,63,59,56,94,73,45,30.09,29.96,7,1,8,0.00
2013-6-5,75,67,60,65,60,53,94,78,69,30.13,30.00,5,1,11,0.02
2013-6-6,66,62,60,63,61,59,98,94,80,30.02,29.82,3,0,10,2.26
2013-6-7,73,66,62,69,65,62,98,94,84,29.82,29.62,4,1,9,0.08
2013-6-8,82,69,60,66,61,56,97,79,47,30.07,29.80,5,1,7,0.10
2013-6-9,86,73,63,71,66,61,95,80,53,30.14,30.02,8,1,19,0.30
2013-6-10,79,69,64,72,67,63,97,94,76,30.04,29.81,9,1,19,0.82
2013-6-11,80,70,62,66,64,62,98,81,58,29.92,29.84,10,2,17,0.23
2013-6-12,90,79,68,75,68,63,83,71,56,29.93,29.81,6,1,9,0.00
2013-6-13,84,74,64,72,67,58,95,79,63,29.81,29.55,12,2,30,0.90
2013-6-14,77,67,58,62,57,53,89,72,50,30.02,29.73,8,1,14,0.00
2013-6-15,83,69,56,64,58,54,94,71,42,30.12,30.01,7,1,10,0.00
2013-6-16,83,71,60,70,63,56,95,77,56,30.04,29.94,8,1,13,0.12
2013-6-17,86,72,64,71,68,64,97,85,56,30.00,29.87,5,1,10,0.31
2013-6-18,72,68,63,69,67,62,97,94,87,29.91,29.80,4,0,8,0.95
2013-6-19,67,64,61,65,63,60,97,96,92,30.12,29.91,2,0,4,0.00
2013-6-20,78,70,64,67,64,63,97,84,66,30.23,30.13,5,1,13,0.00
2013-6-21,82,72,60,69,62,56,89,72,60,30.26,30.17,5,1,9,0.00
2013-6-22,85,71,57,69,62,55,94,76,53,30.25,30.11,5,0,7,0.00
2013-6-23,88,70,66,72,53,-100,95,69,48,30.18,30.07,3,-84,7,0.01
2013-6-24,88,76,69,73,69,66,92,79,57,30.16,30.03,5,0,9,0.00
2013-6-25,87,75,65,73,68,64,97,80,57,30.08,29.94,6,1,9,0.00
2013-6-26,89,74,67,73,68,65,97,83,56,29.96,29.85,8,1,24,0.68
2013-6-27,82,72,67,73,68,66,98,88,67,29.88,29.68,6,1,11,0.08
2013-6-28,72,72,71,67,67,66,86,84,82,29.71,29.64,2,0,7,0.00
2013-6-29,84,78,68,69,67,64,92,70,57,29.69,29.59,6,2,13,0.04
2013-6-30,84,73,65,72,68,64,97,87,62,29.83,29.67,5,1,12,0.15
2013-7-1,81,73,68,71,68,66,96,86,68,29.94,29.80,6,1,12,0.02
2013-7-2,74,71,69,70,69,67,96,91,86,30.13,29.93,10,1,20,1.48
2013-7-3,76,71,69,72,70,68,98,95,88,30.22,30.10,7,1,11,1.02
2013-7-4,83,74,69,76,71,68,97,92,73,30.24,30.15,14,1,23,0.96
2013-7-5,83,75,69,75,71,68,97,87,73,30.23,30.13,6,1,13,0.02
2013-7-6,85,76,68,73,70,67,96,82,60,30.20,30.08,6,1,14,0.00
2013-7-7,82,73,68,75,69,66,97,89,74,30.13,30.04,5,1,9,0.48
2013-7-8,85,73,67,73,68,66,98,85,56,30.15,30.07,5,0,8,0.01
2013-7-9,87,76,68,75,70,67,96,81,63,30.12,30.02,5,0,8,0.00
2013-7-10,86,75,70,77,71,68,97,87,65,30.04,29.91,3,0,6,0.30
2013-7-11,85,74,68,73,70,67,98,88,66,29.92,29.84,3,0,6,0.39
2013-7-12,75,68,65,68,65,64,97,90,77,30.05,29.87,4,1,11,0.00
2013-7-13,80,71,66,72,68,64,96,90,74,30.18,30.04,5,0,9,0.07
2013-7-14,85,76,70,74,70,67,92,81,63,30.31,30.18,5,1,15,0.03
2013-7-15,90,78,69,75,70,66,98,79,49,30.32,30.22,2,0,6,0.02
2013-7-16,91,77,69,78,70,67,97,83,55,30.28,30.17,10,0,17,0.72
2013-7-17,89,75,70,78,72,69,98,90,66,30.25,30.16,3,0,14,0.04
2013-7-22,78,70,0,74,68,0,97,90,82,29.82,29.76,3,0,19,0.17
2013-7-23,87,76,70,72,69,67,97,80,56,29.78,29.68,6,1,10,0.00
2013-7-24,87,76,69,71,68,66,91,75,51,29.86,29.69,7,1,9,0.00
2013-7-25,82,72,65,66,62,58,89,72,52,30.02,29.85,4,1,8,0.01
2013-7-26,81,72,63,68,65,62,96,80,62,30.08,29.98,6,1,9,0.00
2013-7-27,72,69,67,68,66,65,96,91,81,30.01,29.90,5,1,14,0.30
2013-7-28,83,73,66,71,67,65,95,83,59,29.98,29.88,3,1,8,0.00
2013-7-29,80,69,59,66,59,55,96,74,46,30.18,29.98,9,1,10,0.00
2013-7-30,82,68,56,66,60,54,94,76,54,30.24,30.12,3,0,7,0.00
2013-7-31,74,67,63,67,64,62,97,91,73,30.14,29.99,2,0,4,0.10
2013-8-1,83,72,64,70,66,64,98,83,60,29.99,29.84,13,1,15,0.04
2013-8-2,84,72,63,66,63,59,96,75,46,30.00,29.89,7,0,9,0.00
2013-8-3,84,71,64,70,64,59,91,79,60,29.98,29.90,3,0,9,0.00
2013-8-4,82,71,64,66,62,57,96,74,47,30.04,29.91,5,1,10,0.00
2013-8-5,79,68,57,64,60,55,93,77,58,30.09,29.98,5,1,9,0.00
2013-8-6,82,73,66,71,66,62,90,81,68,30.00,29.94,5,1,11,0.00
2013-8-7,78,72,70,72,69,67,96,90,81,30.03,29.98,4,1,11,0.09
2013-8-8,80,73,70,73,71,68,96,91,79,30.02,29.95,8,1,10,0.11
2013-8-9,87,77,71,76,72,70,98,86,65,29.97,29.91,10,1,14,0.59
2013-8-10,87,77,70,76,72,69,98,84,61,30.04,29.97,4,0,10,0.00
2013-8-11,86,76,70,75,72,69,97,88,65,30.07,29.97,2,0,4,0.10
2013-8-12,88,75,67,75,70,67,98,85,57,30.02,29.90,5,0,9,0.01
2013-8-13,82,74,68,72,69,64,95,85,69,29.91,29.76,6,1,10,0.07
2013-8-14,78,67,59,65,57,51,91,72,44,30.11,29.84,7,1,15,0.00
2013-8-15,77,62,50,59,54,49,95,77,49,30.18,30.08,5,0,7,0.00
2013-8-16,76,62,50,62,56,49,96,82,59,30.18,30.11,3,0,6,0.00
2013-8-17,70,62,54,62,58,52,97,90,71,30.23,30.17,3,0,7,0.14
2013-8-18,69,64,61,66,63,60,98,95,88,30.22,30.15,6,0,9,0.32
2013-8-19,77,68,62,71,66,62,98,93,80,30.18,30.06,4,0,9,0.06
2013-8-20,83,72,66,73,68,65,98,88,68,30.17,30.08,6,1,9,0.01
2013-8-21,81,73,66,75,70,65,98,91,74,30.19,30.07,3,0,7,0.02
2013-8-22,86,74,65,74,68,64,98,83,59,30.10,29.97,6,0,11,0.01
2013-8-23,83,70,63,72,67,61,96,88,66,30.11,29.93,8,1,16,0.29
2013-8-24,83,68,60,66,61,57,98,82,52,30.30,30.11,5,0,6,0.00
2013-8-25,81,66,54,65,59,53,97,79,46,30.40,30.27,7,0,7,0.00
2013-8-26,86,70,57,67,61,56,96,77,47,30.31,30.06,4,0,8,0.00
2013-8-27,84,74,64,73,67,61,93,80,66,30.06,29.92,6,0,10,0.00
2013-8-28,84,75,70,75,70,68,97,87,69,29.96,29.81,5,1,11,0.45
2013-8-29,87,76,70,74,71,68,97,83,61,30.00,29.81,4,0,11,0.02
2013-8-30,85,74,66,73,69,65,98,84,63,30.02,29.88,5,1,10,0.00
2013-8-31,88,74,68,75,69,66,96,85,62,29.90,29.80,8,0,17,0.42
2013-9-1,85,72,64,75,69,63,98,91,70,29.86,29.76,3,0,5,0.13
2013-9-2,87,76,67,73,69,66,98,82,58,29.85,29.75,6,1,10,0.01
2013-9-3,86,75,66,71,66,59,96,76,46,29.96,29.76,5,1,11,0.00
2013-9-4,84,69,57,65,60,55,95,75,45,30.09,29.95,6,0,9,0.00
2013-9-5,85,70,57,64,60,56,95,74,43,30.11,30.02,8,1,11,0.00
2013-9-6,79,67,58,62,58,55,95,74,50,30.19,30.09,4,1,12,0.00
2013-9-7,82,67,53,66,60,52,96,81,58,30.12,29.95,5,1,9,0.00
2013-9-8,87,71,61,72,64,57,94,79,59,29.98,29.88,4,0,6,0.00
2013-9-9,80,70,64,69,66,63,96,86,67,30.14,29.98,4,0,9,0.00
2013-9-10,90,76,66,75,70,65,97,82,58,30.19,30.10,5,0,7,0.00
2013-9-11,90,77,68,74,70,67,97,81,54,30.16,30.01,4,0,8,0.00
2013-9-12,89,75,67,74,68,65,96,81,53,30.01,29.77,5,1,13,0.01
2013-9-13,77,69,56,65,56,47,90,67,39,29.92,29.73,12,2,17,0.00
2013-9-14,74,59,48,53,49,46,95,72,39,30.14,29.93,6,1,9,0.00
2013-9-15,75,61,46,61,54,45,96,78,56,30.23,30.09,4,1,10,0.00
2013-9-16,73,64,56,65,59,52,94,84,67,30.22,30.07,4,0,12,0.00
2013-9-17,73,58,47,57,52,46,97,81,52,30.36,30.22,3,1,9,0.01
2013-9-18,70,57,46,57,51,45,95,82,63,30.32,30.17,4,1,7,0.00
2013-9-19,73,65,59,65,60,55,94,84,72,30.18,30.05,5,1,9,0.00
2013-9-20,71,66,63,67,64,61,96,91,85,30.06,29.93,6,0,9,0.28
2013-9-21,67,64,58,66,63,58,98,96,93,29.93,29.66,5,1,14,0.62
2013-9-22,74,62,54,61,56,52,98,84,54,29.93,29.75,5,0,11,0.01
2013-9-23,74,60,49,60,53,47,94,79,56,30.06,29.93,3,1,8,0.00
2013-9-24,76,62,52,62,56,50,92,79,58,30.09,29.91,7,1,8,0.00
2013-9-25,68,61,54,61,58,53,97,90,78,29.95,29.86,3,0,6,0.01
2013-9-26,77,65,58,61,58,54,97,79,49,30.05,29.90,3,0,9,0.00
2013-9-27,77,61,49,61,54,48,97,81,53,30.20,30.05,4,0,4,0.00
2013-9-28,68,61,54,57,55,50,92,81,64,30.26,30.18,0,0,1,0.00
2013-9-29,73,58,49,58,52,48,96,79,53,30.19,30.04,4,0,5,0.00
2013-9-30,78,62,50,61,54,49,96,78,45,30.09,29.97,1,0,1,0.00
2013-10-1,81,66,56,63,58,54,97,78,47,30.11,30.01,7,0,9,0.00
2013-10-2,83,67,56,65,59,55,96,78,48,30.13,30.02,4,0,11,0.00
2013-10-3,81,66,58,68,61,56,96,84,63,30.12,30.03,3,0,5,0.00
2013-10-4,87,70,59,67,62,58,97,79,44,30.13,30.03,3,0,8,0.00
2013-10-5,87,70,59,70,64,58,97,81,51,30.11,29.99,2,0,7,0.00
2013-10-6,81,70,60,68,63,59,97,81,58,30.01,29.87,7,1,16,0.00
2013-10-7,70,63,51,68,59,47,97,86,63,30.06,29.73,17,2,19,2.22
2013-10-8,68,55,45,53,48,44,96,79,54,30.26,30.06,4,1,10,0.00
2013-10-9,65,54,47,51,48,46,95,82,61,30.29,30.19,5,1,16,0.00
2013-10-10,62,54,49,59,52,46,98,94,82,30.19,29.99,7,1,12,0.29
2013-10-11,73,61,56,63,57,54,96,87,66,29.99,29.91,5,1,9,0.00
2013-10-12,67,61,58,64,60,57,98,95,88,30.11,29.97,3,0,9,0.11
2013-10-13,65,61,58,61,59,57,97,93,84,30.25,30.11,6,1,9,0.02
2013-10-14,68,62,57,62,59,56,98,90,76,30.28,30.18,3,0,8,0.09
2013-10-15,72,59,52,60,55,51,98,87,61,30.22,30.07,4,0,6,0.00
2013-10-16,70,61,54,60,56,52,96,85,67,30.08,29.92,3,0,7,0.00
2013-10-17,66,62,58,62,59,52,95,90,78,29.92,29.75,10,1,15,0.01
2013-10-18,67,56,47,51,45,41,85,68,43,30.03,29.90,8,1,14,0.00
2013-10-19,60,53,46,55,49,45,96,87,73,29.98,29.80,10,1,13,0.00
2013-10-20,64,51,40,44,38,35,84,64,37,30.11,29.93,8,1,19,0.00
2013-10-21,66,52,37,49,44,36,95,76,52,30.17,29.96,6,1,12,0.00
2013-10-22,64,56,50,50,48,46,93,75,56,29.96,29.79,11,1,23,0.01
2013-10-23,54,48,41,49,43,32,96,82,57,29.98,29.69,11,2,23,0.05
2013-10-24,47,41,35,34,32,30,83,70,53,30.19,29.98,9,1,16,0.00
2013-10-25,50,39,33,31,29,26,85,67,42,30.37,30.19,8,1,14,0.00
2013-10-26,58,42,27,35,28,25,91,63,30,30.36,30.03,10,2,15,0.00
2013-10-27,66,53,45,41,37,34,72,56,37,30.10,30.01,9,1,17,0.00
2013-10-28,62,50,38,52,44,36,90,79,56,30.26,30.11,2,0,4,0.00
2013-10-29,69,58,50,56,51,49,97,79,54,30.35,30.24,5,1,10,0.00
2013-10-30,70,60,53,61,55,50,96,84,70,30.27,30.12,4,1,9,0.08
2013-10-31,67,62,56,59,57,55,97,85,70,30.14,29.76,9,2,18,0.00
2013-11-1,76,67,60,62,56,46,92,69,36,29.74,29.58,11,4,22,0.03
2013-11-2,65,56,47,47,40,33,78,56,35,29.93,29.66,10,2,19,0.00
2013-11-3,58,49,41,39,35,31,77,61,41,30.39,29.93,9,2,15,0.00
2013-11-4,51,41,31,32,30,27,89,65,45,30.58,30.39,5,1,7,0.00
2013-11-5,50,44,34,43,33,26,85,66,53,30.62,30.47,2,0,5,0.00
2013-11-6,67,55,46,52,48,43,93,77,56,30.47,30.07,11,2,15,0.00
2013-11-7,59,52,42,55,43,26,90,70,51,30.12,29.92,14,3,23,0.00
2013-11-8,51,42,37,29,26,24,65,53,36,30.33,30.12,13,3,21,0.00
2013-11-9,57,43,30,30,27,25,82,55,35,30.36,30.12,11,2,20,0.00
2013-11-10,65,52,41,36,30,24,58,45,22,30.26,30.05,14,4,26,0.00
2013-11-11,59,47,34,30,27,25,73,47,29,30.33,30.07,12,3,16,0.00
2013-11-12,56,42,28,36,23,15,60,48,26,30.44,29.99,16,3,21,0.00
2013-11-13,44,33,25,19,16,14,70,51,30,30.55,30.44,11,2,17,0.00
2013-11-14,60,43,28,21,18,12,65,39,19,30.46,30.28,8,1,11,0.00
2013-11-15,63,48,34,49,29,19,95,53,25,30.31,30.17,12,2,20,0.27
2013-11-16,53,50,48,52,50,47,98,96,94,30.27,30.21,5,0,11,0.02
2013-11-17,60,56,53,58,55,52,98,96,92,30.21,29.78,15,5,24,0.05
2013-11-18,64,58,47,60,38,25,96,52,27,29.98,29.74,17,6,24,0.05
2013-11-19,48,42,36,28,27,26,67,56,44,30.34,29.97,11,2,18,0.00
2013-11-20,48,38,32,28,25,23,76,61,40,30.51,30.34,5,1,9,0.00
2013-11-21,50,44,37,43,36,27,81,74,65,30.54,30.40,4,1,7,0.00
2013-11-22,66,57,46,56,49,41,84,76,64,30.40,30.05,9,2,15,0.00
2013-11-23,58,46,31,50,31,15,78,58,32,30.23,30.06,20,5,26,0.00
2013-11-24,32,26,20,18,7,3,68,46,30,30.56,30.23,16,5,26,0.00
2013-11-25,35,28,20,13,10,7,69,49,37,30.57,30.38,11,2,15,0.00
2013-11-26,41,34,31,40,31,11,97,88,37,30.39,29.65,6,0,9,2.18
2013-11-27,41,34,26,40,28,13,97,80,58,30.15,29.61,17,5,33,0.03
2013-11-28,40,31,23,20,17,13,71,57,42,30.46,30.16,9,3,19,0.00
2013-11-29,47,34,28,25,21,17,73,59,40,30.67,30.46,5,1,12,0.00
2013-11-30,41,32,24,24,22,19,85,68,51,30.68,30.38,6,1,11,0.00
2013-12-1,55,39,25,30,26,21,85,61,37,30.38,30.02,9,1,12,0.00
2013-12-2,51,45,38,37,34,29,75,65,57,30.02,29.83,6,0,8,0.00
2013-12-3,59,48,39,46,39,34,87,73,52,29.96,29.85,10,2,17,0.00
2013-12-4,61,53,46,54,48,43,92,84,69,30.06,29.95,12,2,14,0.00
2013-12-5,63,59,54,61,57,53,94,91,86,30.07,29.93,11,4,20,0.05
2013-12-6,70,62,43,64,59,42,97,92,75,30.04,29.85,13,4,20,0.85
2013-12-7,44,41,36,42,36,30,96,83,72,30.48,30.04,8,2,11,0.05
2013-12-8,36,31,29,30,28,27,96,90,78,30.48,30.29,4,0,9,0.42
2013-12-9,48,38,31,44,36,30,97,92,84,30.28,30.06,4,0,12,0.13
2013-12-10,40,36,31,38,30,19,97,80,60,30.28,29.97,15,3,21,0.28
2013-12-11,47,36,27,25,20,18,70,54,38,30.43,30.27,10,2,16,0.00
2013-12-12,36,31,26,21,13,7,66,50,31,30.42,30.29,10,3,20,0.00
2013-12-13,47,37,29,20,15,10,51,41,31,30.37,30.25,9,2,15,0.00
2013-12-14,37,34,32,34,31,19,97,89,51,30.31,29.78,3,0,8,0.25
2013-12-15,42,37,34,38,31,25,97,77,63,30.04,29.72,15,4,24,0.00
2013-12-16,45,38,33,32,29,25,82,70,62,30.15,30.02,10,3,16,0.00
2013-12-17,53,43,35,39,33,25,88,70,53,30.09,29.91,12,2,24,0.03
2013-12-18,43,36,31,25,20,17,69,53,41,30.26,30.02,15,3,20,0.00
2013-12-19,66,48,34,28,24,17,60,41,24,30.26,30.13,11,2,16,0.00
2013-12-20,61,54,48,39,31,25,57,43,32,30.14,30.03,13,3,18,0.00
2013-12-21,66,59,51,60,49,38,86,69,54,30.05,29.90,14,5,22,0.00
2013-12-22,66,62,58,63,59,55,96,90,76,30.03,29.87,18,6,24,0.48
2013-12-23,62,51,35,60,47,29,98,86,73,30.20,29.92,10,2,17,0.84
2013-12-24,38,31,22,29,21,9,84,68,47,30.50,30.19,17,4,21,0.00
2013-12-25,34,26,18,14,11,9,77,56,40,30.56,30.37,11,2,15,0.00
2013-12-26,46,35,26,27,18,12,68,51,37,30.40,30.27,14,2,20,0.00
2013-12-27,52,38,27,23,20,16,75,50,30,30.47,30.35,4,0,8,0.00
2013-12-28,54,42,29,38,25,20,82,52,37,30.39,30.16,3,0,8,0.02
2013-12-29,51,43,38,46,40,37,97,88,73,30.15,29.67,13,2,20,1.05
2013-12-30,46,41,34,39,32,27,78,70,61,30.15,29.90,11,3,17,0.00
2013-12-31,44,37,32,29,21,17,80,55,36,30.35,30.11,22,2,26,0.00
2014-1-1,50,38,28,27,22,18,69,55,38,30.40,30.11,14,3,19,0.00
2014-1-2,38,34,30,34,29,22,95,81,62,30.10,29.64,11,1,27,0.08